Weather History for KFHU - January, 2013

Change the Weather History Date:

Tuesday, January 1, 2013

  Actual Average Record
Temperature  
Mean Temperature 35 °F -  
Max Temperature 44 °F 59 °F 70 °F (1984)
Min Temperature 26 °F 37 °F 13 °F (1983)
Degree Days  
Heating Degree Days 30    
Moisture  
Dew Point 21 °F    
Average Humidity 60    
Maximum Humidity 78    
Minimum Humidity 35    
Precipitation  
Precipitation 0.00 in - - ()
Sea Level Pressure  
Sea Level Pressure 30.18 in    
Wind  
Wind Speed 5 mph (SE)    
Max Wind Speed 9 mph    
Max Gust Speed -    
Visibility 10 miles    
Events      
Averages and records for this station are not official NWS values.
T = Trace of Precipitation, MM = Missing Value Source: NWS Daily Summary

Daily Weather History Graph

Daily Weather History Graph

Search for Another Location

Airport or City:

Trip Planner

Search our weather history database for the weather conditions in past years. The results will help you decide how hot, cold, wet, or windy it might be!

Date:

Astronomy

Jan. 01, 2013 Rise Set
Actual Time 7:21 AM MST 5:29 PM MST
Civil Twilight 6:54 AM MST 5:56 PM MST
Nautical Twilight 6:24 AM MST 6:26 PM MST
Astronomical Twilight 5:54 AM MST 6:56 PM MST
Moon 9:45 PM MST (1/1) 9:51 AM MST (1/1)
Length of Visible Light 11h 01m
Length of Day
10h 08m
Waning Gibbous, 83% of the Moon is Illuminated
Jan 1
Waning Gibbous
Jan 4
Last Quarter
Jan 11
New
Jan 18
First Quarter
Jan 26
Full

Hourly Weather History & Observations

Time (MST) Temp. Windchill Dew Point Humidity Pressure Visibility Wind Dir Wind Speed Gust Speed Precip Events Conditions
12:56 AM 30.0 °F 22.4 °F 21.9 °F 72% 30.18 in 10.0 mi WSW 8.1 mph - N/A   Clear
1:56 AM 28.9 °F 20.4 °F 21.0 °F 72% 30.21 in 10.0 mi WSW 9.2 mph - N/A   Clear
2:56 AM 28.0 °F - 21.0 °F 75% 30.21 in 10.0 mi Calm Calm - N/A   Clear
3:56 AM 28.0 °F - 19.9 °F 72% 30.21 in 10.0 mi Calm Calm - N/A   Clear
4:56 AM 26.1 °F 20.5 °F 19.9 °F 78% 30.22 in 10.0 mi SSW 4.6 mph - N/A   Clear
5:56 AM 26.1 °F 17.6 °F 19.0 °F 75% 30.22 in 10.0 mi SSW 8.1 mph - N/A   Clear
6:56 AM 26.1 °F - 19.9 °F 78% 30.23 in 10.0 mi Calm Calm - N/A   Clear
7:56 AM 28.0 °F - 19.9 °F 72% 30.23 in 10.0 mi Calm Calm - N/A   Clear
8:56 AM 30.9 °F 27.5 °F 23.0 °F 72% 30.23 in 10.0 mi ESE 3.5 mph - N/A   Clear
9:56 AM 35.1 °F 27.9 °F 23.0 °F 61% 30.24 in 10.0 mi East 9.2 mph - N/A   Clear
10:56 AM 36.0 °F 31.1 °F 21.9 °F 57% 30.23 in 10.0 mi East 5.8 mph - N/A   Clear
11:56 AM 39.0 °F 34.8 °F 19.9 °F 46% 30.20 in 10.0 mi ESE 5.8 mph - N/A   Clear
12:56 PM 41.0 °F 37.1 °F 16.0 °F 36% 30.14 in 10.0 mi Variable 5.8 mph - N/A   Clear
1:56 PM 42.1 °F 37.7 °F 18.0 °F 38% 30.12 in 10.0 mi Variable 6.9 mph - N/A   Clear
2:56 PM 44.1 °F 40.8 °F 18.0 °F 35% 30.11 in 10.0 mi ESE 5.8 mph - N/A   Clear
3:56 PM 44.1 °F 41.5 °F 19.0 °F 37% 30.11 in 10.0 mi ESE 4.6 mph - N/A   Clear
4:56 PM 42.1 °F 38.4 °F 19.9 °F 41% 30.12 in 10.0 mi East 5.8 mph - N/A   Clear
5:56 PM 39.0 °F 33.4 °F 21.9 °F 50% 30.13 in 10.0 mi East 8.1 mph - N/A   Clear
6:56 PM 37.9 °F 33.5 °F 23.0 °F 55% 30.14 in 10.0 mi SE 5.8 mph - N/A   Clear
7:56 PM 37.0 °F 34.5 °F 24.1 °F 59% 30.14 in 10.0 mi SSE 3.5 mph - N/A   Clear
8:56 PM 34.0 °F 31.0 °F 21.9 °F 61% 30.14 in 10.0 mi NNE 3.5 mph - N/A   Clear
9:56 PM 34.0 °F - 21.9 °F 61% 30.14 in 10.0 mi Calm Calm - N/A   Clear
10:56 PM 32.0 °F - 21.0 °F 64% 30.16 in 10.0 mi Calm Calm - N/A   Clear
11:56 PM 30.9 °F - 21.0 °F 67% 30.14 in 10.0 mi Calm Calm - N/A   Clear